Location: Home
(42.5358°N, 72.7383°W)
Time: 05:39:15
(UTC-05:00)

Explorer 11/Cluster Stage 4 - Pass Details

Date: 06 December 2021
Orbit: 467 x 1255 km, 28.8° (Epoch: 25 January)

Event Time Altitude Azimuth Distance (km) Brightness Sun altitude
Rises 01:16:22 0° 227° (SW) 3,228 - -62.0°
Reaches altitude 10° 01:19:17 10° 210° (SSW) 2,447 - -61.5°
Maximum altitude 01:23:31 20° 165° (SSE) 2,013 - -60.9°
Drops below altitude 10° 01:28:20 10° 121° (ESE) 2,856 - -60.2°
Sets 01:32:05 0° 106° (ESE) 3,949 - -59.6°
